星链-4403 (STARLINK-4403 )

导读

STARLINK-4403是美国SpaceX星链星座成员,于2022年7月22日发射升空,是星链低轨互联网星座组网进程中的一颗卫星。星链星座计划部署数万颗低轨卫星,旨在提供全球覆盖的高速互联网服务,该卫星入轨后承担着星座组网与全球宽带互联网接入服务的相关任务,服务全球多个地区网络覆盖。

Basic Information
目录编号:
53197
目录名称:
STARLINK-4403
国际标识:
2022-084J
轨道中心:
EARTH
卫星名称:
星链-4403
卫星全名:
星链-4403 (STARLINK-4403 )
卫星状态:
在轨 (已飞行1505 天)
发射日期:
2022-07-22 UTC
国别 :
美国 (US)
星等 :
--
Orbit Information
数据来源 国际轨道数据
星历时间: 2026-09-04T06:00:02+0800
9小时前
查看轨道信息
半长轴: 6855.963km
偏心率: 0.0000896
轨道倾角: 97.285°
近地点辐角 53.484°
升交点赤经 301.944°
平近点角 24.718°
近地点: 477.211km
远地点: 478.441km
周期: 94.159分钟
每日圈数: 15.293263
Detailed Information
固有亮度:
5
最大亮度:
2.5
卫星平台:
Starlink v1.5
覆盖范围:
全球
运营商:
太空探索技术公司
运营商所在国:
美国
制造商(研发单位):
太空探索技术公司
制造商所在国:
美国
使用方式:
暂无
Satellite Introduction
星链(Starlink)计划是由太空探索技术公司(SpaceX)提出的一个巨型低轨卫星互联网星座项目,计划在2019年至2024年间在太空搭建由约1.2万颗卫星组成的“星链”网络,其中1584颗将部署在地球上空550千米处的近地轨道,并从2020年开始工作。该卫星仍在工作。
2D Orbit Map
3D Orbit Map
Orbit Altitude Analysis Chart
Orbit Inclination Analysis Chart
Orbit Comprehensive Analysis Chart
View Comprehensive Chart
Conjunction Data List
Event ID Objects TCA Miss Dist (km) Collision Risk Probability Collision Risk Index (CRI) Action
CDM_260904-181005-319705-690721
2026-09-04T
18:10:04+0000
0.715 km
远距离
7.836285E-5 中风险 0.73
CDM_260903-060405-319706-386021
2026-09-03T
06:04:46+0000
0.784 km
远距离
5.814461E-5 中风险 0.7
CDM_260904-150705-319705-610521
2026-09-04T
15:07:46+0000
1.236 km
极远距离
9.934432E-6 低风险 0.55
CDM_260905-082505-319706-292721
2026-09-05T
08:25:34+0000
1.335 km
极远距离
8.772428E-6 低风险 0.54
CDM_260904-022205-319706-800821
2026-09-04T
02:22:33+0000
1.506 km
极远距离
6.477736E-6 低风险 0.51
CDM_260905-064805-319705-763721
2026-09-05T
06:48:06+0000
1.660 km
极远距离
4.648229E-6 低风险 0.48
CDM_260905-150705-319705-751221
2026-09-05T
15:07:28+0000
1.845 km
极远距离
3.178211E-6 低风险 0.45
CDM_260904-071505-319706-711521
2026-09-04T
07:15:40+0000
1.754 km
极远距离
3.083047E-6 低风险 0.45
CDM_260905-024105-319705-734921
2026-09-05T
02:41:35+0000
1.712 km
极远距离
2.735481E-6 低风险 0.44
CDM_260905-045901-213905-319722
SL-8 R/B (12139)
2026-09-05T
04:59:38+0000
2.280 km
极远距离
2.143384E-6 低风险 0.42